Location: Stanford
(52.2833°N, 2.4333°W)
Time: 03:17:08
(UTC+00:00)

Cosmos 2058 Rocket - Pass Details

Date: 22 January 2021
Orbit: 611 x 638 km, 82.5° (Epoch: 24 February)

Event Time Altitude Azimuth Distance (km) Brightness Sun altitude
Rises 17:58:01 0° 349° (N) 2,944 6.5 -11.8°
Reaches altitude 10° 18:00:16 10° 350° (N) 2,034 5.6 -12.2°
Maximum altitude 18:04:48 85° 76° (ENE) 647 3.1 -12.8°
Drops below altitude 10° 18:09:19 10° 169° (S) 2,026 5.7 -13.5°
Sets 18:11:33 0° 170° (S) 2,930 6.6 -13.8°
